Back to catalog

CZ-6A DEB

AliveSSO
NORAD 54457·DEBRIS·🇨🇳 China

Launched Nov 11, 2022 from Taiyuan Satellite Launch Center

Loading…

Next Passes (next 24 hours)

TLE

FreshSource: Space-Track

Epoch: Sep 14, 2026, 14:58 UTC

1 54457U 22151GH  26257.62395126  .00001996  00000-0  69277-3 0  9991
2 54457  98.8736 317.1649 0081053 227.2073 132.2277 14.34892504199967

Track CZ-6A DEB in real time with AllMySat

Download on the App Store